Year,Month,Day,Hour,Minute,Value (Times are PST for temperature in C)
2007,09,18,00,00,9.90
2007,09,18,00,01,9.90
2007,09,18,00,02,9.90
2007,09,18,00,03,9.90
2007,09,18,00,04,9.90
2007,09,18,00,05,9.90
2007,09,18,00,06,9.90
2007,09,18,00,07,9.90
2007,09,18,00,08,10.00
2007,09,18,00,09,10.10
2007,09,18,00,10,10.10
2007,09,18,00,11,10.10
2007,09,18,00,12,10.20
2007,09,18,00,13,10.20
2007,09,18,00,14,10.20
2007,09,18,00,15,10.30
2007,09,18,00,16,10.30
2007,09,18,00,17,10.30
2007,09,18,00,18,10.30
2007,09,18,00,19,10.40
2007,09,18,00,20,10.40
2007,09,18,00,21,10.40
2007,09,18,00,22,10.40
2007,09,18,00,23,10.40
2007,09,18,00,24,10.40
2007,09,18,00,25,10.40
2007,09,18,00,26,10.40
2007,09,18,00,27,10.40
2007,09,18,00,28,10.40
2007,09,18,00,29,10.40
2007,09,18,00,30,10.40
2007,09,18,00,31,10.40
2007,09,18,00,32,10.40
2007,09,18,00,33,10.40
2007,09,18,00,34,10.40
2007,09,18,00,35,10.40
2007,09,18,00,36,10.40
2007,09,18,00,37,10.40
2007,09,18,00,38,10.40
2007,09,18,00,39,10.40
2007,09,18,00,40,10.40
2007,09,18,00,41,10.40
2007,09,18,00,42,10.40
2007,09,18,00,43,10.40
2007,09,18,00,44,10.30
2007,09,18,00,45,10.30
2007,09,18,00,46,10.30
2007,09,18,00,47,10.30
2007,09,18,00,48,10.20
2007,09,18,00,49,10.20
2007,09,18,00,50,10.20
2007,09,18,00,51,10.20
2007,09,18,00,52,10.10
2007,09,18,00,53,10.10
2007,09,18,00,54,10.10
2007,09,18,00,55,10.10
2007,09,18,00,56,10.10
2007,09,18,00,57,10.10
2007,09,18,00,58,10.10
2007,09,18,00,59,10.10
2007,09,18,01,00,10.10
2007,09,18,01,01,10.10
2007,09,18,01,02,10.20
2007,09,18,01,03,10.20
2007,09,18,01,04,10.30
2007,09,18,01,05,10.30
2007,09,18,01,06,10.40
2007,09,18,01,07,10.40
2007,09,18,01,08,10.40
2007,09,18,01,09,10.40
2007,09,18,01,10,10.50
2007,09,18,01,11,10.60
2007,09,18,01,12,10.60
2007,09,18,01,13,10.60
2007,09,18,01,14,10.60
2007,09,18,01,15,10.60
2007,09,18,01,16,10.60
2007,09,18,01,17,10.60
2007,09,18,01,18,10.70
2007,09,18,01,19,10.70
2007,09,18,01,20,10.70
2007,09,18,01,21,10.80
2007,09,18,01,22,10.80
2007,09,18,01,23,10.80
2007,09,18,01,24,10.80
2007,09,18,01,25,10.80
2007,09,18,01,26,10.80
2007,09,18,01,27,10.90
2007,09,18,01,28,10.90
2007,09,18,01,29,10.90
2007,09,18,01,30,10.90
2007,09,18,01,31,10.90
2007,09,18,01,32,10.90
2007,09,18,01,33,10.90
2007,09,18,01,34,10.90
2007,09,18,01,35,10.90
2007,09,18,01,36,10.90
2007,09,18,01,37,10.90
2007,09,18,01,38,10.90
2007,09,18,01,39,10.90
2007,09,18,01,40,10.90
2007,09,18,01,41,10.90
2007,09,18,01,42,10.90
2007,09,18,01,43,10.90
2007,09,18,01,44,10.90
2007,09,18,01,45,10.90
2007,09,18,01,46,10.90
2007,09,18,01,47,10.90
2007,09,18,01,48,10.90
2007,09,18,01,49,10.90
2007,09,18,01,50,10.90
2007,09,18,01,51,10.90
2007,09,18,01,52,10.90
2007,09,18,01,53,10.90
2007,09,18,01,54,10.90
2007,09,18,01,55,10.90
2007,09,18,01,56,10.90
2007,09,18,01,57,10.90
2007,09,18,01,58,10.90
2007,09,18,01,59,10.90
2007,09,18,02,00,10.90
2007,09,18,02,01,10.90
2007,09,18,02,02,10.90
2007,09,18,02,03,10.90
2007,09,18,02,04,10.90
2007,09,18,02,05,10.90
2007,09,18,02,06,10.90
2007,09,18,02,07,10.90
2007,09,18,02,08,10.80
2007,09,18,02,09,10.80
2007,09,18,02,10,10.80
2007,09,18,02,11,10.70
2007,09,18,02,12,10.70
2007,09,18,02,13,10.70
2007,09,18,02,14,10.60
2007,09,18,02,15,10.60
2007,09,18,02,16,10.60
2007,09,18,02,17,10.50
2007,09,18,02,18,10.40
2007,09,18,02,19,10.40
2007,09,18,02,20,10.30
2007,09,18,02,21,10.20
2007,09,18,02,22,10.10
2007,09,18,02,23,10.10
2007,09,18,02,24,10.10
2007,09,18,02,25,10.10
2007,09,18,02,26,10.00
2007,09,18,02,27,9.90
2007,09,18,02,28,9.90
2007,09,18,02,29,9.90
2007,09,18,02,30,9.90
2007,09,18,02,31,9.80
2007,09,18,02,32,9.80
2007,09,18,02,33,9.80
2007,09,18,02,34,9.70
2007,09,18,02,35,9.70
2007,09,18,02,36,9.70
2007,09,18,02,37,9.70
2007,09,18,02,38,9.70
2007,09,18,02,39,9.70
2007,09,18,02,40,9.70
2007,09,18,02,41,9.70
2007,09,18,02,42,9.60
2007,09,18,02,43,9.60
2007,09,18,02,44,9.60
2007,09,18,02,45,9.60
2007,09,18,02,46,9.50
2007,09,18,02,47,9.50
2007,09,18,02,48,9.50
2007,09,18,02,49,9.50
2007,09,18,02,50,9.50
2007,09,18,02,51,9.50
2007,09,18,02,52,9.50
2007,09,18,02,53,9.50
2007,09,18,02,54,9.50
2007,09,18,02,55,9.50
2007,09,18,02,56,9.50
2007,09,18,02,57,9.50
2007,09,18,02,58,9.50
2007,09,18,02,59,9.50
2007,09,18,03,00,9.50
2007,09,18,03,01,9.50
2007,09,18,03,02,9.50
2007,09,18,03,03,9.40
2007,09,18,03,04,9.40
2007,09,18,03,05,9.40
2007,09,18,03,06,9.40
2007,09,18,03,07,9.40
2007,09,18,03,08,9.30
2007,09,18,03,09,9.30
2007,09,18,03,10,9.30
2007,09,18,03,11,9.30
2007,09,18,03,12,9.30
2007,09,18,03,13,9.20
2007,09,18,03,14,9.20
2007,09,18,03,15,9.20
2007,09,18,03,16,9.20
2007,09,18,03,17,9.20
2007,09,18,03,18,9.20
2007,09,18,03,19,9.10
2007,09,18,03,20,9.10
2007,09,18,03,21,9.00
2007,09,18,03,22,9.00
2007,09,18,03,23,9.00
2007,09,18,03,24,9.00
2007,09,18,03,25,8.90
2007,09,18,03,26,8.90
2007,09,18,03,27,8.90
2007,09,18,03,28,8.90
2007,09,18,03,29,8.90
2007,09,18,03,30,8.90
2007,09,18,03,31,8.80
2007,09,18,03,32,8.80
2007,09,18,03,33,8.80
2007,09,18,03,34,8.80
2007,09,18,03,35,8.80
2007,09,18,03,36,8.80
2007,09,18,03,37,8.70
2007,09,18,03,38,8.70
2007,09,18,03,39,8.70
2007,09,18,03,40,8.70
2007,09,18,03,41,8.70
2007,09,18,03,42,8.70
2007,09,18,03,43,8.60
2007,09,18,03,44,8.60
2007,09,18,03,45,8.60
2007,09,18,03,46,8.60
2007,09,18,03,47,8.50
2007,09,18,03,48,8.50
2007,09,18,03,49,8.50
2007,09,18,03,50,8.50
2007,09,18,03,51,8.40
2007,09,18,03,52,8.40
2007,09,18,03,53,8.40
2007,09,18,03,54,8.30
2007,09,18,03,55,8.30
2007,09,18,03,56,8.30
2007,09,18,03,57,8.20
2007,09,18,03,58,8.20
2007,09,18,03,59,8.20
2007,09,18,04,00,8.20
2007,09,18,04,01,8.20
2007,09,18,04,02,8.20
2007,09,18,04,03,8.20
2007,09,18,04,04,8.10
2007,09,18,04,05,8.10
2007,09,18,04,06,8.10
2007,09,18,04,07,8.10
2007,09,18,04,08,8.10
2007,09,18,04,09,8.10
2007,09,18,04,10,8.00
2007,09,18,04,11,8.00
2007,09,18,04,12,8.00
2007,09,18,04,13,8.00
2007,09,18,04,14,8.00
2007,09,18,04,15,8.00
2007,09,18,04,16,8.00
2007,09,18,04,17,8.00
2007,09,18,04,18,8.00
2007,09,18,04,19,8.00
2007,09,18,04,20,7.90
2007,09,18,04,21,7.90
2007,09,18,04,22,7.90
2007,09,18,04,23,7.90
2007,09,18,04,24,7.90
2007,09,18,04,25,7.90
2007,09,18,04,26,7.90
2007,09,18,04,27,7.90
2007,09,18,04,28,7.90
2007,09,18,04,29,7.90
2007,09,18,04,30,7.90
2007,09,18,04,31,7.90
2007,09,18,04,32,7.90
2007,09,18,04,33,8.00
2007,09,18,04,34,7.90
2007,09,18,04,35,7.90
2007,09,18,04,36,7.90
2007,09,18,04,37,7.90
2007,09,18,04,38,7.90
2007,09,18,04,39,7.90
2007,09,18,04,40,7.80
2007,09,18,04,41,7.80
2007,09,18,04,42,7.80
2007,09,18,04,43,7.80
2007,09,18,04,44,7.80
2007,09,18,04,45,7.80
2007,09,18,04,46,7.80
2007,09,18,04,47,7.80
2007,09,18,04,48,7.80
2007,09,18,04,49,7.80
2007,09,18,04,50,7.80
2007,09,18,04,51,7.80
2007,09,18,04,52,7.80
2007,09,18,04,53,7.80
2007,09,18,04,54,7.80
2007,09,18,04,55,7.80
2007,09,18,04,56,7.80
2007,09,18,04,57,7.80
2007,09,18,04,58,7.70
2007,09,18,04,59,7.70
2007,09,18,05,00,7.70
2007,09,18,05,01,7.80
2007,09,18,05,02,7.80
2007,09,18,05,03,7.80
2007,09,18,05,04,7.80
2007,09,18,05,05,7.80
2007,09,18,05,06,7.80
2007,09,18,05,07,7.80
2007,09,18,05,08,7.70
2007,09,18,05,09,7.70
2007,09,18,05,10,7.70
2007,09,18,05,11,7.70
2007,09,18,05,12,7.70
2007,09,18,05,13,7.70
2007,09,18,05,14,7.70
2007,09,18,05,15,7.80
2007,09,18,05,16,7.80
2007,09,18,05,17,7.80
2007,09,18,05,18,7.80
2007,09,18,05,19,7.80
2007,09,18,05,20,7.80
2007,09,18,05,21,7.80
2007,09,18,05,22,7.80
2007,09,18,05,23,7.80
2007,09,18,05,24,7.80
2007,09,18,05,25,7.80
2007,09,18,05,26,7.80
2007,09,18,05,27,7.80
2007,09,18,05,28,7.80
2007,09,18,05,29,7.80
2007,09,18,05,30,7.80
2007,09,18,05,31,7.70
2007,09,18,05,32,7.70
2007,09,18,05,33,7.60
2007,09,18,05,34,7.60
2007,09,18,05,35,7.50
2007,09,18,05,36,7.50
2007,09,18,05,37,7.50
2007,09,18,05,38,7.50
2007,09,18,05,39,7.60
2007,09,18,05,40,7.60
2007,09,18,05,41,7.60
2007,09,18,05,42,7.60
2007,09,18,05,43,7.70
2007,09,18,05,44,7.70
2007,09,18,05,45,7.70
2007,09,18,05,46,7.70
2007,09,18,05,47,7.70
2007,09,18,05,48,7.70
2007,09,18,05,49,7.70
2007,09,18,05,50,7.70
2007,09,18,05,51,7.70
2007,09,18,05,52,7.70
2007,09,18,05,53,7.70
2007,09,18,05,54,7.70
2007,09,18,05,55,7.70
2007,09,18,05,56,7.70
2007,09,18,05,57,7.70
2007,09,18,05,58,7.70
2007,09,18,05,59,7.80
2007,09,18,06,00,7.80
2007,09,18,06,01,7.80
2007,09,18,06,02,7.80
2007,09,18,06,03,7.80
2007,09,18,06,04,7.80
2007,09,18,06,05,7.80
2007,09,18,06,06,7.80
2007,09,18,06,07,7.80
2007,09,18,06,08,7.70
2007,09,18,06,09,7.70
2007,09,18,06,10,7.70
2007,09,18,06,11,7.70
2007,09,18,06,12,7.70
2007,09,18,06,13,7.70
2007,09,18,06,14,7.70
2007,09,18,06,15,7.70
2007,09,18,06,16,7.70
2007,09,18,06,17,7.70
2007,09,18,06,18,7.70
2007,09,18,06,19,7.70
2007,09,18,06,20,7.60
2007,09,18,06,21,7.60
2007,09,18,06,22,7.60
2007,09,18,06,23,7.60
2007,09,18,06,24,7.60
2007,09,18,06,25,7.60
2007,09,18,06,26,7.60
2007,09,18,06,27,7.60
2007,09,18,06,28,7.60
2007,09,18,06,29,7.60
2007,09,18,06,30,7.60
2007,09,18,06,31,7.60
2007,09,18,06,32,7.60
2007,09,18,06,33,7.60
2007,09,18,06,34,7.50
2007,09,18,06,35,7.50
2007,09,18,06,36,7.50
2007,09,18,06,37,7.50
2007,09,18,06,38,7.50
2007,09,18,06,39,7.40
2007,09,18,06,40,7.40
2007,09,18,06,41,7.40
2007,09,18,06,42,7.40
2007,09,18,06,43,7.40
2007,09,18,06,44,7.30
2007,09,18,06,45,7.30
2007,09,18,06,46,7.30
2007,09,18,06,47,7.30
2007,09,18,06,48,7.30
2007,09,18,06,49,7.30
2007,09,18,06,50,7.30
2007,09,18,06,51,7.30
2007,09,18,06,52,7.40
2007,09,18,06,53,7.40
2007,09,18,06,54,7.40
2007,09,18,06,55,7.40
2007,09,18,06,56,7.40
2007,09,18,06,57,7.40
2007,09,18,06,58,7.40
2007,09,18,06,59,7.30
2007,09,18,07,00,7.30
2007,09,18,07,01,7.30
2007,09,18,07,02,7.30
2007,09,18,07,03,7.30
2007,09,18,07,04,7.30
2007,09,18,07,05,7.30
2007,09,18,07,06,7.30
2007,09,18,07,07,7.30
2007,09,18,07,08,7.30
2007,09,18,07,09,7.30
2007,09,18,07,10,7.30
2007,09,18,07,11,7.20
2007,09,18,07,12,7.20
2007,09,18,07,13,7.20
2007,09,18,07,14,7.20
2007,09,18,07,15,7.20
2007,09,18,07,16,7.10
2007,09,18,07,17,7.10
2007,09,18,07,18,7.10
2007,09,18,07,19,7.10
2007,09,18,07,20,7.10
2007,09,18,07,21,7.10
2007,09,18,07,22,7.10
2007,09,18,07,23,7.10
2007,09,18,07,24,7.10
2007,09,18,07,25,7.10
2007,09,18,07,26,7.20
2007,09,18,07,27,7.20
2007,09,18,07,28,7.20
2007,09,18,07,29,7.20
2007,09,18,07,30,7.30
2007,09,18,07,31,7.30
2007,09,18,07,32,7.30
2007,09,18,07,33,7.40
2007,09,18,07,34,7.40
2007,09,18,07,35,7.50
2007,09,18,07,36,7.50
2007,09,18,07,37,7.60
2007,09,18,07,38,7.60
2007,09,18,07,39,7.70
2007,09,18,07,40,7.70
2007,09,18,07,41,7.80
2007,09,18,07,42,7.90
2007,09,18,07,43,7.90
2007,09,18,07,44,8.00
2007,09,18,07,45,8.00
2007,09,18,07,46,8.00
2007,09,18,07,47,8.00
2007,09,18,07,48,8.00
2007,09,18,07,49,8.00
2007,09,18,07,50,8.00
2007,09,18,07,51,8.00
2007,09,18,07,52,8.00
2007,09,18,07,53,8.10
2007,09,18,07,54,8.10
2007,09,18,07,55,8.20
2007,09,18,07,56,8.20
2007,09,18,07,57,8.20
2007,09,18,07,58,8.30
2007,09,18,07,59,8.40
2007,09,18,08,00,8.50
2007,09,18,08,01,8.60
2007,09,18,08,02,8.70
2007,09,18,08,03,8.80
2007,09,18,08,04,8.90
2007,09,18,08,05,9.00
2007,09,18,08,06,9.10
2007,09,18,08,07,9.20
2007,09,18,08,08,9.20
2007,09,18,08,09,9.30
2007,09,18,08,10,9.40
2007,09,18,08,11,9.40
2007,09,18,08,12,9.50
2007,09,18,08,13,9.60
2007,09,18,08,14,9.70
2007,09,18,08,15,9.70
2007,09,18,08,16,9.80
2007,09,18,08,17,9.80
2007,09,18,08,18,9.90
2007,09,18,08,19,9.90
2007,09,18,08,20,9.90
2007,09,18,08,21,9.90
2007,09,18,08,22,9.90
2007,09,18,08,23,9.90
2007,09,18,08,24,9.90
2007,09,18,08,25,10.00
2007,09,18,08,26,10.10
2007,09,18,08,27,10.10
2007,09,18,08,28,10.10
2007,09,18,08,29,10.20
2007,09,18,08,30,10.20
2007,09,18,08,31,10.20
2007,09,18,08,32,10.20
2007,09,18,08,33,10.30
2007,09,18,08,34,10.40
2007,09,18,08,35,10.40
2007,09,18,08,36,10.40
2007,09,18,08,37,10.50
2007,09,18,08,38,10.60
2007,09,18,08,39,10.60
2007,09,18,08,40,10.70
2007,09,18,08,41,10.80
2007,09,18,08,42,10.90
2007,09,18,08,43,10.90
2007,09,18,08,44,10.90
2007,09,18,08,45,10.90
2007,09,18,08,46,11.00
2007,09,18,08,47,11.10
2007,09,18,08,48,11.10
2007,09,18,08,49,11.20
2007,09,18,08,50,11.30
2007,09,18,08,51,11.40
2007,09,18,08,52,11.40
2007,09,18,08,53,11.40
2007,09,18,08,54,11.50
2007,09,18,08,55,11.60
2007,09,18,08,56,11.60
2007,09,18,08,57,11.60
2007,09,18,08,58,11.60
2007,09,18,08,59,11.60
2007,09,18,09,00,11.60
2007,09,18,09,01,11.70
2007,09,18,09,02,11.70
2007,09,18,09,03,11.70
2007,09,18,09,04,11.70
2007,09,18,09,05,11.80
2007,09,18,09,06,11.80
2007,09,18,09,07,11.90
2007,09,18,09,08,12.00
2007,09,18,09,09,11.90
2007,09,18,09,10,11.90
2007,09,18,09,11,11.80
2007,09,18,09,12,11.80
2007,09,18,09,13,11.80
2007,09,18,09,14,11.80
2007,09,18,09,15,11.80
2007,09,18,09,16,11.80
2007,09,18,09,17,11.80
2007,09,18,09,18,11.80
2007,09,18,09,19,11.80
2007,09,18,09,20,11.70
2007,09,18,09,21,11.60
2007,09,18,09,22,11.60
2007,09,18,09,23,11.60
2007,09,18,09,24,11.50
2007,09,18,09,25,11.40
2007,09,18,09,26,11.40
2007,09,18,09,27,11.40
2007,09,18,09,28,11.40
2007,09,18,09,29,11.30
2007,09,18,09,30,11.30
2007,09,18,09,31,11.40
2007,09,18,09,32,11.30
2007,09,18,09,33,11.30
2007,09,18,09,34,11.30
2007,09,18,09,35,11.30
2007,09,18,09,36,11.30
2007,09,18,09,37,11.30
2007,09,18,09,38,11.30
2007,09,18,09,39,11.30
2007,09,18,09,40,11.30
2007,09,18,09,41,11.40
2007,09,18,09,42,11.40
2007,09,18,09,43,11.30
2007,09,18,09,44,11.30
2007,09,18,09,45,11.30
2007,09,18,09,46,11.30
2007,09,18,09,47,11.20
2007,09,18,09,48,11.10
2007,09,18,09,49,11.10
2007,09,18,09,50,11.10
2007,09,18,09,51,11.10
2007,09,18,09,52,11.10
2007,09,18,09,53,11.10
2007,09,18,09,54,11.10
2007,09,18,09,55,11.10
2007,09,18,09,56,11.10
2007,09,18,09,57,11.10
2007,09,18,09,58,11.10
2007,09,18,09,59,11.20
2007,09,18,10,00,11.20
2007,09,18,10,01,11.20
2007,09,18,10,02,11.10
2007,09,18,10,03,11.10
2007,09,18,10,04,11.10
2007,09,18,10,05,11.10
2007,09,18,10,06,11.10
2007,09,18,10,07,11.10
2007,09,18,10,08,11.10
2007,09,18,10,09,11.10
2007,09,18,10,10,11.20
2007,09,18,10,11,11.10
2007,09,18,10,12,11.10
2007,09,18,10,13,11.10
2007,09,18,10,14,11.10
2007,09,18,10,15,11.10
2007,09,18,10,16,11.10
2007,09,18,10,17,11.00
2007,09,18,10,18,10.90
2007,09,18,10,19,10.90
2007,09,18,10,20,10.90
2007,09,18,10,21,11.10
2007,09,18,10,22,11.00
2007,09,18,10,23,11.10
2007,09,18,10,24,11.10
2007,09,18,10,25,11.10
2007,09,18,10,26,11.20
2007,09,18,10,27,11.20
2007,09,18,10,28,11.20
2007,09,18,10,29,11.20
2007,09,18,10,30,11.20
2007,09,18,10,31,11.30
2007,09,18,10,32,11.20
2007,09,18,10,33,11.20
2007,09,18,10,34,11.20
2007,09,18,10,35,11.10
2007,09,18,10,36,11.10
2007,09,18,10,37,11.10
2007,09,18,10,38,11.10
2007,09,18,10,39,11.20
2007,09,18,10,40,11.20
2007,09,18,10,41,11.20
2007,09,18,10,42,11.20
2007,09,18,10,43,11.20
2007,09,18,10,44,11.20
2007,09,18,10,45,11.20
2007,09,18,10,46,11.20
2007,09,18,10,47,11.20
2007,09,18,10,48,11.20
2007,09,18,10,49,11.20
2007,09,18,10,50,11.20
2007,09,18,10,51,11.20
2007,09,18,10,52,11.20
2007,09,18,10,53,11.20
2007,09,18,10,54,11.30
2007,09,18,10,55,11.30
2007,09,18,10,56,11.40
2007,09,18,10,57,11.40
2007,09,18,10,58,11.40
2007,09,18,10,59,11.30
2007,09,18,11,00,11.30
2007,09,18,11,01,11.30
2007,09,18,11,02,11.40
2007,09,18,11,03,11.40
2007,09,18,11,04,11.40
2007,09,18,11,05,11.40
2007,09,18,11,06,11.40
2007,09,18,11,07,11.40
2007,09,18,11,08,11.50
2007,09,18,11,09,11.60
2007,09,18,11,10,11.70
2007,09,18,11,11,11.70
2007,09,18,11,12,11.70
2007,09,18,11,13,11.70
2007,09,18,11,14,11.70
2007,09,18,11,15,11.70
2007,09,18,11,16,11.70
2007,09,18,11,17,11.70
2007,09,18,11,18,11.60
2007,09,18,11,19,11.60
2007,09,18,11,20,11.60
2007,09,18,11,21,11.60
2007,09,18,11,22,11.60
2007,09,18,11,23,11.60
2007,09,18,11,24,11.60
2007,09,18,11,25,11.60
2007,09,18,11,26,11.70
2007,09,18,11,27,11.70
2007,09,18,11,28,11.70
2007,09,18,11,29,11.70
2007,09,18,11,30,11.60
2007,09,18,11,31,11.60
2007,09,18,11,32,11.60
2007,09,18,11,33,11.60
2007,09,18,11,34,11.70
2007,09,18,11,35,11.70
2007,09,18,11,36,11.70
2007,09,18,11,37,11.80
2007,09,18,11,38,11.80
2007,09,18,11,39,11.90
2007,09,18,11,40,12.00
2007,09,18,11,41,12.00
2007,09,18,11,42,12.00
2007,09,18,11,43,12.00
2007,09,18,11,44,12.00
2007,09,18,11,45,12.00
2007,09,18,11,46,12.10
2007,09,18,11,47,12.10
2007,09,18,11,48,12.10
2007,09,18,11,49,12.20
2007,09,18,11,50,12.30
2007,09,18,11,51,12.30
2007,09,18,11,52,12.30
2007,09,18,11,53,12.40
2007,09,18,11,54,12.40
2007,09,18,11,55,12.50
2007,09,18,11,56,12.50
2007,09,18,11,57,12.50
2007,09,18,11,58,12.50
2007,09,18,11,59,12.50
2007,09,18,12,00,12.40
2007,09,18,12,01,12.30
2007,09,18,12,02,12.30
2007,09,18,12,03,12.20
2007,09,18,12,04,12.10
2007,09,18,12,05,12.10
2007,09,18,12,06,12.00
2007,09,18,12,07,12.00
2007,09,18,12,08,12.00
2007,09,18,12,09,12.00
2007,09,18,12,10,12.00
2007,09,18,12,11,12.00
2007,09,18,12,12,12.00
2007,09,18,12,13,12.00
2007,09,18,12,14,12.10
2007,09,18,12,15,12.20
2007,09,18,12,16,12.20
2007,09,18,12,17,12.30
2007,09,18,12,18,12.40
2007,09,18,12,19,12.50
2007,09,18,12,20,12.60
2007,09,18,12,21,12.70
2007,09,18,12,22,12.70
2007,09,18,12,23,12.80
2007,09,18,12,24,12.80
2007,09,18,12,25,12.90
2007,09,18,12,26,13.00
2007,09,18,12,27,13.10
2007,09,18,12,28,13.10
2007,09,18,12,29,13.10
2007,09,18,12,30,13.10
2007,09,18,12,31,13.10
2007,09,18,12,32,13.00
2007,09,18,12,33,13.00
2007,09,18,12,34,13.00
2007,09,18,12,35,13.00
2007,09,18,12,36,13.10
2007,09,18,12,37,13.30
2007,09,18,12,38,13.20
2007,09,18,12,39,13.20
2007,09,18,12,40,13.10
2007,09,18,12,41,13.00
2007,09,18,12,42,13.00
2007,09,18,12,43,12.90
2007,09,18,12,44,12.90
2007,09,18,12,45,12.90
2007,09,18,12,46,12.90
2007,09,18,12,47,12.90
2007,09,18,12,48,13.00
2007,09,18,12,49,13.10
2007,09,18,12,50,13.10
2007,09,18,12,51,13.20
2007,09,18,12,52,13.20
2007,09,18,12,53,13.30
2007,09,18,12,54,13.40
2007,09,18,12,55,13.40
2007,09,18,12,56,13.50
2007,09,18,12,57,13.60
2007,09,18,12,58,13.70
2007,09,18,12,59,13.80
2007,09,18,13,00,13.80
2007,09,18,13,01,13.90
2007,09,18,13,02,14.00
2007,09,18,13,03,14.00
2007,09,18,13,04,14.10
2007,09,18,13,05,14.20
2007,09,18,13,06,14.30
2007,09,18,13,07,14.50
2007,09,18,13,08,14.60
2007,09,18,13,09,14.70
2007,09,18,13,10,14.70
2007,09,18,13,11,14.80
2007,09,18,13,12,14.80
2007,09,18,13,13,14.80
2007,09,18,13,14,14.70
2007,09,18,13,15,14.60
2007,09,18,13,16,14.50
2007,09,18,13,17,14.50
2007,09,18,13,18,14.50
2007,09,18,13,19,14.40
2007,09,18,13,20,14.40
2007,09,18,13,21,14.40
2007,09,18,13,22,14.30
2007,09,18,13,23,14.40
2007,09,18,13,24,14.40
2007,09,18,13,25,14.40
2007,09,18,13,26,14.40
2007,09,18,13,27,14.60
2007,09,18,13,28,14.60
2007,09,18,13,29,14.80
2007,09,18,13,30,14.80
2007,09,18,13,31,14.80
2007,09,18,13,32,14.80
2007,09,18,13,33,14.90
2007,09,18,13,34,14.90
2007,09,18,13,35,14.90
2007,09,18,13,36,15.00
2007,09,18,13,37,15.00
2007,09,18,13,38,15.10
2007,09,18,13,39,15.20
2007,09,18,13,40,15.20
2007,09,18,13,41,15.10
2007,09,18,13,42,14.90
2007,09,18,13,43,14.80
2007,09,18,13,44,14.90
2007,09,18,13,45,15.00
2007,09,18,13,46,15.10
2007,09,18,13,47,15.20
2007,09,18,13,48,15.20
2007,09,18,13,49,15.20
2007,09,18,13,50,15.30
2007,09,18,13,51,15.20
2007,09,18,13,52,15.10
2007,09,18,13,53,15.10
2007,09,18,13,54,15.20
2007,09,18,13,55,15.10
2007,09,18,13,56,14.90
2007,09,18,13,57,15.00
2007,09,18,13,58,15.00
2007,09,18,13,59,15.00
2007,09,18,14,00,15.10
2007,09,18,14,01,15.20
2007,09,18,14,02,15.30
2007,09,18,14,03,15.30
2007,09,18,14,04,15.30
2007,09,18,14,05,15.30
2007,09,18,14,06,15.30
2007,09,18,14,07,15.30
2007,09,18,14,08,15.20
2007,09,18,14,09,15.10
2007,09,18,14,10,15.00
2007,09,18,14,11,14.90
2007,09,18,14,12,14.90
2007,09,18,14,13,14.80
2007,09,18,14,14,14.90
2007,09,18,14,15,14.90
2007,09,18,14,16,14.90
2007,09,18,14,17,14.90
2007,09,18,14,18,14.80
2007,09,18,14,19,14.80
2007,09,18,14,20,14.70
2007,09,18,14,21,14.60
2007,09,18,14,22,14.40
2007,09,18,14,23,14.40
2007,09,18,14,24,14.30
2007,09,18,14,25,14.40
2007,09,18,14,26,14.40
2007,09,18,14,27,14.30
2007,09,18,14,28,14.10
2007,09,18,14,29,13.90
2007,09,18,14,30,13.80
2007,09,18,14,31,13.80
2007,09,18,14,32,13.80
2007,09,18,14,33,13.70
2007,09,18,14,34,13.70
2007,09,18,14,35,13.70
2007,09,18,14,36,13.70
2007,09,18,14,37,13.60
2007,09,18,14,38,13.70
2007,09,18,14,39,13.70
2007,09,18,14,40,13.70
2007,09,18,14,41,13.70
2007,09,18,14,42,13.70
2007,09,18,14,43,13.70
2007,09,18,14,44,13.60
2007,09,18,14,45,13.50
2007,09,18,14,46,13.40
2007,09,18,14,47,13.40
2007,09,18,14,48,13.30
2007,09,18,14,49,13.30
2007,09,18,14,50,13.20
2007,09,18,14,51,13.20
2007,09,18,14,52,13.10
2007,09,18,14,53,13.00
2007,09,18,14,54,12.90
2007,09,18,14,55,12.90
2007,09,18,14,56,12.80
2007,09,18,14,57,12.90
2007,09,18,14,58,13.00
2007,09,18,14,59,13.10
2007,09,18,15,00,13.20
2007,09,18,15,01,13.30
2007,09,18,15,02,13.30
2007,09,18,15,03,13.30
2007,09,18,15,04,13.30
2007,09,18,15,05,13.30
2007,09,18,15,06,13.40
2007,09,18,15,07,13.50
2007,09,18,15,08,13.60
2007,09,18,15,09,13.60
2007,09,18,15,10,13.60
2007,09,18,15,11,13.70
2007,09,18,15,12,13.60
2007,09,18,15,13,13.60
2007,09,18,15,14,13.50
2007,09,18,15,15,13.40
2007,09,18,15,16,13.40
2007,09,18,15,17,13.50
2007,09,18,15,18,13.50
2007,09,18,15,19,13.60
2007,09,18,15,20,13.60
2007,09,18,15,21,13.70
2007,09,18,15,22,13.70
2007,09,18,15,23,13.60
2007,09,18,15,24,13.50
2007,09,18,15,25,13.50
2007,09,18,15,26,13.50
2007,09,18,15,27,13.30
2007,09,18,15,28,13.20
2007,09,18,15,29,13.10
2007,09,18,15,30,13.00
2007,09,18,15,31,13.00
2007,09,18,15,32,13.00
2007,09,18,15,33,12.90
2007,09,18,15,34,12.90
2007,09,18,15,35,12.90
2007,09,18,15,36,12.90
2007,09,18,15,37,12.80
2007,09,18,15,38,12.90
2007,09,18,15,39,12.90
2007,09,18,15,40,12.90
2007,09,18,15,41,12.90
2007,09,18,15,42,12.80
2007,09,18,15,43,12.80
2007,09,18,15,44,12.90
2007,09,18,15,45,13.00
2007,09,18,15,46,13.20
2007,09,18,15,47,13.30
2007,09,18,15,48,13.50
2007,09,18,15,49,13.60
2007,09,18,15,50,13.60
2007,09,18,15,51,13.70
2007,09,18,15,52,13.70
2007,09,18,15,53,13.70
2007,09,18,15,54,13.70
2007,09,18,15,55,13.80
2007,09,18,15,56,13.80
2007,09,18,15,57,13.70
2007,09,18,15,58,13.60
2007,09,18,15,59,13.40
2007,09,18,16,00,13.30
2007,09,18,16,01,13.30
2007,09,18,16,02,13.10
2007,09,18,16,03,13.00
2007,09,18,16,04,13.00
2007,09,18,16,05,12.90
2007,09,18,16,06,12.90
2007,09,18,16,07,13.00
2007,09,18,16,08,13.10
2007,09,18,16,09,13.20
2007,09,18,16,10,13.30
2007,09,18,16,11,13.30
2007,09,18,16,12,13.20
2007,09,18,16,13,13.10
2007,09,18,16,14,13.00
2007,09,18,16,15,12.90
2007,09,18,16,16,12.80
2007,09,18,16,17,12.80
2007,09,18,16,18,12.90
2007,09,18,16,19,13.00
2007,09,18,16,20,13.10
2007,09,18,16,21,13.10
2007,09,18,16,22,13.20
2007,09,18,16,23,13.30
2007,09,18,16,24,13.30
2007,09,18,16,25,13.30
2007,09,18,16,26,13.30
2007,09,18,16,27,13.30
2007,09,18,16,28,13.30
2007,09,18,16,29,13.20
2007,09,18,16,30,13.10
2007,09,18,16,31,13.00
2007,09,18,16,32,13.00
2007,09,18,16,33,13.00
2007,09,18,16,34,13.10
2007,09,18,16,35,13.20
2007,09,18,16,36,13.30
2007,09,18,16,37,13.40
2007,09,18,16,38,13.60
2007,09,18,16,39,13.60
2007,09,18,16,40,13.70
2007,09,18,16,41,13.70
2007,09,18,16,42,13.80
2007,09,18,16,43,13.90
2007,09,18,16,44,13.90
2007,09,18,16,45,14.00
2007,09,18,16,46,14.10
2007,09,18,16,47,14.20
2007,09,18,16,48,14.20
2007,09,18,16,49,14.20
2007,09,18,16,50,14.20
2007,09,18,16,51,14.20
2007,09,18,16,52,14.20
2007,09,18,16,53,14.10
2007,09,18,16,54,14.10
2007,09,18,16,55,14.20
2007,09,18,16,56,14.30
2007,09,18,16,57,14.40
2007,09,18,16,58,14.40
2007,09,18,16,59,14.50
2007,09,18,17,00,14.50
2007,09,18,17,01,14.50
2007,09,18,17,02,14.60
2007,09,18,17,03,14.60
2007,09,18,17,04,14.60
2007,09,18,17,05,14.70
2007,09,18,17,06,14.70
2007,09,18,17,07,14.80
2007,09,18,17,08,14.80
2007,09,18,17,09,14.80
2007,09,18,17,10,14.80
2007,09,18,17,11,14.80
2007,09,18,17,12,14.80
2007,09,18,17,13,14.80
2007,09,18,17,14,14.70
2007,09,18,17,15,14.70
2007,09,18,17,16,14.60
2007,09,18,17,17,14.60
2007,09,18,17,18,14.60
2007,09,18,17,19,14.60
2007,09,18,17,20,14.60
2007,09,18,17,21,14.60
2007,09,18,17,22,14.50
2007,09,18,17,23,14.40
2007,09,18,17,24,14.40
2007,09,18,17,25,14.50
2007,09,18,17,26,14.50
2007,09,18,17,27,14.60
2007,09,18,17,28,14.60
2007,09,18,17,29,14.60
2007,09,18,17,30,14.70
2007,09,18,17,31,14.70
2007,09,18,17,32,14.70
2007,09,18,17,33,14.60
2007,09,18,17,34,14.60
2007,09,18,17,35,14.50